DW7267 Weather Reports


Display with metric or nautical units.
time (UTC)temp
F
wind
direction
speed
MPH
gust
MPH
rain 1hr
in
rain 24hr
in
rain mn
in
humidity
%
barometer
mb
20260505183806 51 221 2.0 13.0 0.07 0.09 0.09 82 1013.9
20260505183305 50 151 2.0 8.0 0.07 0.09 0.09 83 1013.7
20260505182801 50 262 2.0 10.0 0.07 0.09 0.09 84 1013.7
20260505182305 50 178 2.0 10.0 0.07 0.09 0.09 86 1013.7
20260505181801 49 285 3.0 10.0 0.07 0.09 0.09 86 1013.6
20260505181301 49 150 3.0 10.0 0.07 0.09 0.09 87 1013.7
20260505180802 49 276 2.0 8.0 0.06 0.08 0.08 88 1013.6
20260505180302 48 216 2.0 8.0 0.06 0.08 0.08 89 1013.7
20260505175756 47 219 2.0 7.0 0.06 0.08 0.08 87 1013.9
20260505175256 48 235 1.0 6.0 0.05 0.07 0.08 84 1013.9
20260505174756 49 228 1.0 7.0 0.00 0.02 0.02 85 1013.7
20260505174258 48 242 1.0 7.0 0.00 0.02 0.02 86 1013.7
20260505173757 48 144 2.0 7.0 0.00 0.02 0.02 85 1013.7
20260505173530 48 145 1.0 7.0 0.00 0.02 0.02 85 1013.7
20260505172752 49 146 1.0 7.0 0.00 0.02 0.02 85 1013.6
20260505172526 49 119 1.0 8.0 0.00 0.02 0.02 85 1013.6
20260505171752 49 245 1.0 8.0 0.00 0.02 0.02 85 1013.6
20260505171253 48 160 2.0 9.0 0.00 0.02 0.02 84 1013.5
20260505170754 49 80 2.0 9.0 0.00 0.02 0.02 83 1013.6
20260505170525 49 157 2.0 9.0 0.00 0.02 0.02 83 1013.6
20260505165755 49 164 3.0 10.0 0.00 0.02 0.02 84 1013.5
20260505165023 49 94 2.0 7.0 0.00 0.02 0.02 87 1013.4
20260505164252 48 148 2.0 6.0 0.00 0.02 0.02 89 1013.5
20260505163754 47 126 2.0 6.0 0.00 0.02 0.02 88 1013.5
20260505163249 47 134 1.0 5.0 0.00 0.02 0.02 88 1013.6
20260505162750 47 145 1.0 4.0 0.00 0.02 0.02 88 1013.6
20260505162250 47 122 0.0 7.0 0.00 0.02 0.02 88 1013.6
20260505161749 47 223 0.0 7.0 0.00 0.02 0.02 88 1013.6
20260505161248 47 223 1.0 7.0 0.00 0.02 0.02 89 1013.6
20260505160750 47 254 1.0 7.0 0.00 0.02 0.02 89 1013.6
20260505160245 46 154 1.0 5.0 0.00 0.02 0.02 89 1013.7
20260505153240 46 126 0.0 2.0 0.00 0.02 0.02 89 1013.4
20260505152735 46 126 0.0 3.0 0.01 0.02 0.02 89 1013.6
20260505152235 46 92 0.0 3.0 0.01 0.02 0.02 89 1013.6
20260505152006 46 93 1.0 3.0 0.02 0.02 0.02 89 1013.5
20260505151233 46 92 1.0 5.0 0.02 0.02 0.02 89 1013.5
20260505151003 46 83 1.0 5.0 0.02 0.02 0.02 89 1013.4
20260505150230 46 111 1.0 5.0 0.02 0.02 0.02 89 1013.4
20260505140207 46 143 1.0 4.0 0.00 0.00 0.00 86 1013.5
20260505124857 45 138 0.0 3.0 0.00 0.00 0.00 83 1012.8
20260505124127 45 144 0.0 3.0 0.00 0.00 0.00 83 1012.8
20260505123628 45 140 0.0 3.0 0.00 0.00 0.00 82 1012.7
20260505123122 45 141 0.0 3.0 0.00 0.00 0.00 82 1012.7
20260505122616 45 129 0.0 4.0 0.00 0.00 0.00 82 1012.6
20260505122110 46 143 0.0 4.0 0.00 0.00 0.00 81 1012.6
20260505121604 46 143 0.0 2.0 0.00 0.00 0.00 81 1012.7
20260505121057 46 143 0.0 2.0 0.00 0.00 0.00 81 1012.8
20260505120559 46 143 0.0 5.0 0.00 0.00 0.00 81 1012.8
20260505120056 46 137 0.0 5.0 0.00 0.00 0.00 81 1012.8
20260505115556 46 150 1.0 7.0 0.00 0.00 0.00 80 1012.9
20260505115055 46 155 1.0 7.0 0.00 0.00 0.00 80 1012.8
20260505114552 46 165 2.0 7.0 0.00 0.00 0.00 80 1012.9
20260505114053 46 171 1.0 7.0 0.00 0.00 0.00 79 1012.9
20260505113552 46 102 1.0 3.0 0.00 0.00 0.00 79 1013.0
20260505113050 46 143 1.0 7.0 0.00 0.00 0.00 79 1013.2
20260505112820 46 101 1.0 7.0 0.00 0.00 0.00 79 1013.2
20260505112049 46 149 1.0 7.0 0.00 0.00 0.00 79 1013.3
20260505111550 46 137 1.0 7.0 0.00 0.00 0.00 79 1013.3
20260505111049 46 100 2.0 5.0 0.00 0.00 0.00 79 1013.4
20260505110546 46 151 1.0 5.0 0.00 0.00 0.00 79 1013.3
20260505101515 47 143 2.0 8.0 0.00 0.00 0.00 74 1014.0
20260505101015 47 158 2.0 8.0 0.00 0.00 0.00 73 1014.1
20260505100515 47 250 1.0 7.0 0.00 0.00 0.00 73 1014.1
20260505100016 47 128 1.0 7.0 0.00 0.00 0.00 73 1014.0
20260505095746 47 238 2.0 7.0 0.00 0.00 0.00 72 1014.0
20260505095014 47 160 2.0 7.0 0.00 0.00 0.00 71 1014.0
20260505094513 47 258 1.0 5.0 0.00 0.00 0.00 70 1014.1
20260505094244 47 136 0.0 5.0 0.00 0.00 0.00 70 1014.1
20260505093746 48 207 1.0 5.0 0.00 0.00 0.00 70 1014.1
20260505093011 48 229 2.0 7.0 0.00 0.00 0.00 69 1014.0
20260505092510 48 210 2.0 7.0 0.00 0.00 0.00 69 1014.1
20260505092009 48 133 2.0 8.0 0.00 0.00 0.00 70 1014.1
20260505091503 48 162 3.0 9.0 0.00 0.00 0.00 70 1014.1
20260505091004 48 129 3.0 9.0 0.00 0.00 0.00 70 1014.3
20260505090505 49 134 3.0 9.0 0.00 0.00 0.00 69 1014.2
20260505090002 49 100 3.0 8.0 0.00 0.00 0.00 69 1014.3
20260505085504 49 142 3.0 9.0 0.00 0.00 0.00 69 1014.5
20260505085004 49 181 2.0 9.0 0.00 0.00 0.00 70 1014.5
20260505084506 49 134 1.0 6.0 0.00 0.00 0.00 73 1014.6
20260505084229 50 227 1.0 6.0 0.00 0.00 0.00 73 1014.5
20260505083457 50 149 1.0 6.0 0.00 0.00 0.00 73 1014.5
20260505082956 50 254 1.0 5.0 0.00 0.00 0.00 72 1014.6
20260505082458 50 216 1.0 7.0 0.00 0.00 0.00 72 1014.7
20260505081956 50 242 1.0 7.0 0.00 0.00 0.00 72 1014.7
20260505081458 50 136 1.0 7.0 0.00 0.00 0.00 71 1014.7
20260505081221 50 250 2.0 7.0 0.00 0.00 0.00 71 1014.7
20260505080721 50 155 1.0 5.0 0.00 0.00 0.00 71 1014.8
20260505075948 50 107 1.0 5.0 0.00 0.00 0.00 71 1014.8
20260505075450 50 230 1.0 6.0 0.00 0.00 0.00 71 1014.9
20260505074950 50 199 1.0 6.0 0.00 0.00 0.00 71 1014.9
20260505074450 50 241 1.0 5.0 0.00 0.00 0.00 70 1015.1
20260505073944 50 200 1.0 5.0 0.00 0.00 0.00 70 1015.2
20260505073443 50 206 1.0 5.0 0.00 0.00 0.00 70 1014.9
20260505072944 50 77 1.0 4.0 0.00 0.00 0.00 69 1014.9
20260505072443 50 226 0.0 3.0 0.00 0.00 0.00 69 1014.9
20260505071944 50 259 1.0 6.0 0.00 0.00 0.00 69 1014.8
20260505071444 51 218 1.0 6.0 0.00 0.00 0.00 68 1015.1
20260505070942 51 196 1.0 6.0 0.00 0.00 0.00 68 1015.1
20260505070210 51 136 1.0 7.0 0.00 0.00 0.00 67 1015.2
20260505065437 51 259 1.0 5.0 0.00 0.00 0.00 66 1015.1
20260505064936 51 265 1.0 6.0 0.00 0.00 0.00 66 1015.2
20260505064438 51 141 1.0 6.0 0.00 0.00 0.00 65 1015.1
20260505063937 51 136 1.0 7.0 0.00 0.00 0.00 66 1014.9
20260505063437 51 259 1.0 7.0 0.00 0.00 0.00 66 1014.9
20260505063200 51 241 0.0 5.0 0.00 0.00 0.00 65 1014.9
20260505062427 51 135 1.0 5.0 0.00 0.00 0.00 65 1014.8
20260505061927 51 143 1.0 5.0 0.00 0.00 0.00 65 1014.9
20260505061427 51 147 2.0 5.0 0.00 0.00 0.00 63 1014.9
20260505060927 51 77 1.0 5.0 0.00 0.00 0.00 64 1014.9
20260505060430 51 247 1.0 5.0 0.00 0.00 0.00 63 1014.9
20260505060154 51 130 2.0 5.0 0.00 0.00 0.00 63 1015.2
20260505055420 51 118 2.0 5.0 0.00 0.00 0.00 63 1015.2
20260505055149 51 349 2.0 5.0 0.00 0.00 0.00 63 1015.3
20260505054420 51 96 1.0 5.0 0.00 0.00 0.00 62 1015.3
20260505054152 51 127 1.0 4.0 0.00 0.00 0.00 61 1015.4
20260505053421 51 224 0.0 4.0 0.00 0.00 0.00 60 1015.4
20260505052915 51 103 0.0 4.0 0.00 0.00 0.00 58 1015.4
20260505052415 51 104 0.0 4.0 0.00 0.00 0.00 58 1015.5
20260505052147 51 104 0.0 4.0 0.00 0.00 0.00 59 1015.5
20260505051416 51 93 0.0 4.0 0.00 0.00 0.00 59 1015.6
20260505050914 51 233 1.0 4.0 0.00 0.00 0.00 58 1015.8
20260505050414 51 141 0.0 4.0 0.00 0.00 0.00 57 1015.8
20260505041403 51 260 0.0 2.0 0.00 0.00 0.00 53 1015.5
20260505040902 51 259 0.0 2.0 0.00 0.00 0.00 52 1015.5
20260505040635 52 259 0.0 3.0 0.00 0.00 0.00 52 1015.5
20260505035905 52 261 0.0 4.0 0.00 0.00 0.00 51 1015.4
20260505035402 52 142 0.0 4.0 0.00 0.00 0.00 51 1015.4
20260505034859 52 150 0.0 4.0 0.00 0.00 0.00 50 1015.3
20260505034357 52 224 1.0 5.0 0.00 0.00 0.00 50 1015.3
20260505033858 53 209 1.0 5.0 0.00 0.00 0.00 49 1015.4
20260505033359 53 231 1.0 8.0 0.00 0.00 0.00 49 1015.4
20260505032858 53 117 1.0 8.0 0.00 0.00 0.00 48 1015.3
20260505032626 53 199 1.0 4.0 0.00 0.00 0.00 47 1015.1
20260505031856 53 224 1.0 7.0 0.00 0.00 0.00 47 1015.2
20260505031355 53 122 1.0 7.0 0.00 0.00 0.00 46 1015.2
20260505030854 53 150 1.0 7.0 0.00 0.00 0.00 46 1015.2
20260505030353 53 213 2.0 7.0 0.00 0.00 0.00 46 1015.2
20260505030124 53 209 1.0 7.0 0.00 0.00 0.00 45 1015.2
20260505025347 53 297 1.0 7.0 0.00 0.00 0.00 44 1015.1
20260505024844 53 282 1.0 7.0 0.00 0.00 0.00 43 1015.1
20260505024343 54 133 1.0 7.0 0.00 0.00 0.00 42 1015.1
20260505023840 54 203 1.0 7.0 0.00 0.00 0.00 41 1014.9
20260505023611 54 179 2.0 7.0 0.00 0.00 0.00 41 1015.1
20260505022834 54 224 2.0 10.0 0.00 0.00 0.00 41 1015.2
20260505022335 54 193 2.0 10.0 0.00 0.00 0.00 40 1015.2
20260505022105 54 201 3.0 10.0 0.00 0.00 0.00 39 1015.1
20260505021334 54 235 2.0 10.0 0.00 0.00 0.00 39 1014.7
20260505020835 54 173 2.0 8.0 0.00 0.00 0.00 38 1014.7
20260505020608 54 171 2.0 7.0 0.00 0.00 0.00 38 1014.7
20260505015827 55 123 2.0 8.0 0.00 0.00 0.00 39 1014.8
20260505014828 55 168 2.0 11.0 0.00 0.00 0.00 38 1014.8
20260505014328 55 238 2.0 11.0 0.00 0.00 0.00 38 1014.8
20260505013828 55 221 2.0 8.0 0.00 0.00 0.00 38 1014.9
20260505013328 56 125 2.0 9.0 0.00 0.00 0.00 37 1014.9
20260505012821 56 206 1.0 9.0 0.00 0.00 0.00 37 1015.1
20260505012322 56 116 2.0 10.0 0.00 0.00 0.00 38 1014.9
20260505011824 56 145 3.0 10.0 0.00 0.00 0.00 37 1014.9
20260505011322 56 137 2.0 11.0 0.00 0.00 0.00 38 1015.1
20260505010821 56 150 2.0 11.0 0.00 0.00 0.00 37 1014.9
20260505010323 57 189 3.0 11.0 0.00 0.00 0.00 38 1015.1
20260505005816 57 266 3.0 11.0 0.00 0.00 0.00 37 1015.1
20260505005316 58 199 3.0 9.0 0.00 0.00 0.00 38 1015.1
20260505004815 58 265 4.0 16.0 0.00 0.00 0.00 36 1014.9
20260505004316 58 257 4.0 16.0 0.00 0.00 0.00 36 1014.9
20260505003816 59 183 4.0 13.0 0.00 0.00 0.00 37 1015.1
20260505003318 59 330 3.0 13.0 0.00 0.00 0.00 36 1015.2
20260505002810 59 286 5.0 13.0 0.00 0.00 0.00 37 1015.2
20260505002539 59 242 6.0 13.0 0.00 0.00 0.00 36 1015.2
20260505001809 59 255 5.0 12.0 0.00 0.00 0.00 35 1015.1
20260505001310 60 156 4.0 11.0 0.00 0.00 0.00 36 1015.3
20260505000808 60 233 3.0 12.0 0.00 0.00 0.00 38 1015.1
20260505000308 60 77 3.0 12.0 0.00 0.00 0.00 38 1015.1
20260504235801 60 203 3.0 12.0 0.00 0.00 0.00 42 1015.1
20260504235533 59 120 4.0 13.0 0.00 0.00 0.00 41 1015.1
20260504234801 59 91 3.0 13.0 0.00 0.00 0.00 40 1015.2
20260504234302 59 129 2.0 8.0 0.00 0.00 0.00 41 1015.1
20260504233800 59 234 2.0 9.0 0.00 0.00 0.00 41 1015.2
20260504233302 59 238 2.0 9.0 0.00 0.00 0.00 40 1015.1
20260504232755 59 197 3.0 9.0 0.00 0.00 0.00 39 1015.3
20260504232256 59 133 3.0 9.0 0.00 0.00 0.00 39 1015.3
20260504231752 59 183 3.0 10.0 0.00 0.00 0.00 38 1015.4
20260504231255 59 89 3.0 10.0 0.00 0.00 0.00 39 1015.4
20260504230754 58 221 4.0 11.0 0.00 0.00 0.00 39 1015.4
20260504230254 59 247 4.0 11.0 0.00 0.00 0.00 36 1015.4
20260504225747 59 221 3.0 9.0 0.00 0.00 0.00 37 1015.5
20260504225244 59 174 3.0 14.0 0.00 0.00 0.00 37 1015.4
20260504225018 59 175 4.0 14.0 0.00 0.00 0.00 35 1015.5
20260504224018 59 228 3.0 13.0 0.00 0.00 0.00 35 1015.6
20260504223246 59 221 4.0 13.0 0.00 0.00 0.00 34 1015.5
20260504222740 60 228 3.0 12.0 0.00 0.00 0.00 32 1015.5
20260504222240 60 123 3.0 12.0 0.00 0.00 0.00 31 1015.6
20260504221740 60 220 4.0 12.0 0.00 0.00 0.00 31 1015.8
20260504221240 60 190 3.0 12.0 0.00 0.00 0.00 33 1015.9
20260504220740 60 203 4.0 12.0 0.00 0.00 0.00 32 1016.0
20260504220242 60 226 4.0 12.0 0.00 0.00 0.00 33 1016.0
20260504215734 60 190 3.0 11.0 0.00 0.00 0.00 36 1016.0
20260504214734 60 287 4.0 13.0 0.00 0.00 0.00 38 1015.9
20260504214505 60 126 4.0 11.0 0.00 0.00 0.00 39 1016.1
20260504214005 60 223 4.0 17.0 0.00 0.00 0.00 39 1016.0
20260504213234 60 198 4.0 17.0 0.00 0.00 0.00 39 1016.0
20260504212732 60 88 4.0 17.0 0.00 0.00 0.00 42 1016.0
20260504212229 60 94 4.0 17.0 0.00 0.00 0.00 41 1016.2
20260504212000 61 158 4.0 15.0 0.00 0.00 0.00 43 1016.2
20260504211500 61 213 4.0 16.0 0.00 0.00 0.00 41 1016.2
20260504210728 61 189 5.0 16.0 0.00 0.00 0.00 40 1016.1
20260504210228 61 235 4.0 12.0 0.00 0.00 0.00 41 1016.0
20260504205723 62 259 4.0 12.0 0.00 0.00 0.00 40 1016.1
20260504205222 62 226 4.0 10.0 0.00 0.00 0.00 39 1016.2
20260504204722 62 237 4.0 10.0 0.00 0.00 0.00 43 1016.1
20260504204222 62 219 4.0 12.0 0.00 0.00 0.00 42 1016.0
20260504203722 62 261 4.0 12.0 0.00 0.00 0.00 45 1016.1
20260504203223 61 234 4.0 12.0 0.00 0.00 0.00 45 1016.0
20260504202716 60 251 3.0 12.0 0.00 0.00 0.00 46 1016.0
20260504202216 60 146 3.0 14.0 0.00 0.00 0.00 44 1016.1
20260504201716 60 150 4.0 14.0 0.00 0.00 0.00 45 1016.0
20260504201448 60 140 3.0 12.0 0.00 0.00 0.00 46 1016.2
20260504200716 60 192 4.0 13.0 0.00 0.00 0.00 45 1016.4
20260504200216 60 198 5.0 13.0 0.00 0.00 0.00 44 1016.2
20260504195943 60 339 4.0 13.0 0.00 0.00 0.00 44 1016.4
20260504194713 60 190 4.0 13.0 0.00 0.00 0.00 46 1016.2
20260504194216 60 264 4.0 13.0 0.00 0.00 0.00 44 1016.1
20260504193714 60 171 4.0 13.0 0.00 0.00 0.00 46 1016.1
20260504193214 60 197 3.0 13.0 0.00 0.00 0.00 48 1016.2
20260504192713 60 244 3.0 11.0 0.00 0.00 0.00 48 1016.2
20260504192208 60 223 4.0 11.0 0.00 0.00 0.00 48 1016.1
20260504191708 60 151 4.0 11.0 0.00 0.00 0.00 47 1016.1
20260504191206 60 126 3.0 9.0 0.00 0.00 0.00 50 1016.1
20260504190708 60 219 3.0 8.0 0.00 0.00 0.00 49 1016.0
20260504190208 60 278 4.0 12.0 0.00 0.00 0.00 51 1016.1
20260504185710 60 235 4.0 11.0 0.00 0.00 0.00 52 1016.1
20260504185203 60 151 5.0 14.0 0.00 0.00 0.00 54 1016.0
20260504184704 60 110 4.0 14.0 0.00 0.00 0.00 53 1016.1